Вернуться в каталог

COSMOS 2167

АктивенВоенныеPO
NORAD 21781·PAYLOAD·🇷🇺 Russia

Запущен Nov 12, 1991 с Plesetsk Cosmodrome

Loading…

Ближайшие Пролёты (ближайшие 24 часа)

TLE

СвежийSource: Space-Track

Эпоха: Sep 14, 2026, 05:06 UTC

1 21781U 91077C   26257.21307419  .00000027  00000-0  87822-4 0  9992
2 21781  82.6092 183.9153 0005661 236.5138 279.8321 12.64293924607191

Отслеживайте COSMOS 2167 в реальном времени с AllMySat

Download on the App Store